Regional Weather Roundup
Issued by NWS

Home | Current Version | Previous Version | Graphics & Text | Print | Product List | Glossary On
Versions: 1 2 3 4 5 6 7 8 9 10 11 12 13 14 15 16 17 18 19 20 21 22 23 24 25 26 27 28 29 30 31 32 33 34 35 36 37 38 39 40 41 42 43 44 45 46 47 48 49 50
000
ASUS43 KMPX 200010
RWRMN
WEATHER ROUNDUP FOR MINNESOTA
NATIONAL WEATHER SERVICE TWIN CITIES/CHANHASSEN MN
600 PM CST THU JAN 19 2017


NOTE: "FAIR" INDICATES FEW OR NO CLOUDS BELOW 12,000 FEET WITH NO
SIGNIFICANT WEATHER AND/OR OBSTRUCTIONS TO VISIBILITY. N/A MEANS
CURRENT SKY AND/OR WEATHER CONDITIONS ARE NOT AVAILABLE.

MNZ060>063-068>070-200100-
   Twin Cities Metro

CITY           SKY/WX    TMP DP  RH WIND       PRES   REMARKS
TWIN CITIES    CLOUDY    36  31  82 SE8       29.76R
6HR MIN TEMP:  34; 6HR MAX TEMP:  37;

ST PAUL        CLOUDY    36  33  89 SE7       29.78R
CRYSTAL        CLOUDY    37  30  75 SE6       29.74S
BLAINE         MOCLDY    37  34  87 SE6       29.75S
LAKEVILLE        N/A     34  34 100 E5        29.75S WCI  30
EDEN PRAIRIE   CLOUDY    36  32  85 SE7       29.74R
6HR MIN TEMP:  36; 6HR MAX TEMP:  41;

SOUTH ST PAUL  CLOUDY    36  33  87 SE3       29.77R
LAKE ELMO      CLOUDY    36  32  87 CALM      29.78R
$$
MNZ001>005-007-008-013>017-022>024-027-028-200100-
   Northwest Minnesota

CITY           SKY/WX    TMP DP  RH WIND       PRES   REMARKS
BEMIDJI        CLEAR     40  36  86 S9        29.63S
HALLOCK        FOG       30  30 100 S15       29.55S VSB 1   WCI  19
ROSEAU         CLOUDY    34  30  86 S6        29.57S WCI  29
WARROAD        CLOUDY    37  34  87 S3        29.58S
THIEF RVR FALL CLEAR     32  30  92 S6        29.59S WCI  26
CROOKSTON      CLEAR     34  30  86 S12       29.60R WCI  25
FOSSTON        CLEAR     37  36  93 S9        29.60R
DETROIT LAKES  CLEAR     37  36  93 SE7       29.64S
MOORHEAD       CLEAR     36  34  93 S18       29.60F
PARK RAPIDS    MOCLDY    37  32  82 SE7       29.64S
MAHNOMEN       FAIR      40  36  86 S12       29.59S
$$
MNZ006-009>011-018-025>026-200100-
   North Central Minnesota

CITY           SKY/WX    TMP DP  RH WIND       PRES   REMARKS
BAUDETTE       CLOUDY    32  29  88 SE6       29.59S WCI  26
FLAG ISLAND    CLOUDY    28  27  93 S12       29.57S WCI  18
INTL FALLS     CLEAR     36  33  89 SE3       29.63S
6HR MIN TEMP:  34; 6HR MAX TEMP:  40;

WASKISH        CLEAR     37  36  93 SE6       29.62S
BIG FORK       CLEAR     37  36  93 S6        29.66S FOG
LONGVILLE      PTCLDY    39  36  87 S8        29.67S
GRAND RAPIDS   CLEAR     39  35  86 S7        29.70S
CRANE LAKE     CLOUDY    36  36 100 S7        29.69S FOG
ORR            CLOUDY    36  34  93 S8        29.66S FOG
COOK           CLEAR     36  34  93 CALM      29.70R FOG
WALKER         MOCLDY    40  35  81 SE5       29.65S
$$
MNZ012-019>021-037-200100-
   Northeast Minnesota

CITY           SKY/WX    TMP DP  RH WIND       PRES   REMARKS
DULUTH         CLEAR     38  33  82 SE3       29.72S
6HR MIN TEMP:  38; 6HR MAX TEMP:  45;

ELY            CLEAR     37  36  93 S3        29.70S
HIBBING        FOG       29  29 100 CALM      29.70S VSB<1/4
EVELETH        FOG       32  32  99 CALM      29.72R VSB 1/4
DULUTH HARBOR  CLEAR     34  30  86 CALM      29.77R FOG
TWO HARBORS    CLEAR     36  30  80 CALM      29.73S HAZE
SILVER BAY     CLEAR     34  32  93 CALM      29.74S FOG
GRAND MARAIS     N/A     36  34  92 CALM      29.77
G MARAIS ARPRT FOG       30  28  93 CALM      29.73R VSB<1/4
$$
MNZ029>031-032-039>041-046>048-054>057-064-200100-
   West Central Minnesota

CITY           SKY/WX    TMP DP  RH WIND       PRES   REMARKS
FERGUS FALLS   FOG       36  36 100 S18       29.68R VSB 1/2
WHEATON        DRZL/FOG  41  41 100 SE13      29.64S VSB 1/2
MORRIS         MIX PCPN  36  34  93 SE15      29.64F VSB<1/4
ALEXANDRIA     FOG       34  34 100 S12       29.68S VSB 1/4 WCI  25
ELBOW LAKE     SNOW      34  34 100 SE13      29.65S VSB 1/4 WCI  25
WADENA         CLOUDY    36  34  93 S10       29.65S FOG
GLENWOOD       FOG       34  34 100 SE8       29.69R VSB 1/4 WCI  27
APPLETON       FOG       37  36  93 SE7       29.67S VSB 1/2
BENSON         CLOUDY    37  34  87 S9          N/A
ORTONVILLE     CLOUDY    36  34  93 S3        29.64S FOG
MADISON        CLOUDY    37  37 100 S10       29.66S FOG
WILLMAR        FOG       36  36 100 SE9       29.71R VSB 1/4
$$
MNZ033>034-036-042>043-049>051-058-059-200100-
   Central Minnesota

CITY           SKY/WX    TMP DP  RH WIND       PRES   REMARKS
ST CLOUD       CLOUDY    36  33  89 SE8       29.72S
6HR MIN TEMP:  36; 6HR MAX TEMP:  40;

SAUK CENTRE    FOG       33  33 100 SE8       29.70S VSB 1/2 WCI  26
PAYNESVILLE    CLOUDY    35  35 100 SE3       29.72R
AITKIN         CLEAR     41  34  75 SE8       29.69F
PINE RIVER     MOCLDY    37  34  87 SE8       29.72S
BRAINERD       MOCLDY    37  34  89 S10       29.70S FOG
STAPLES        CLOUDY    36  36 100 SE10G16   29.68R FOG
LONG PRAIRIE   SNOW      32  32 100 E7        29.70S VSB 1/4 WCI  26
LITTLE FALLS   CLOUDY    34  32  93 S3        29.73R FOG
LITCHFIELD     CLOUDY    37  34  87 SE6       29.71F
BUFFALO        CLOUDY    37  33  82 SE3       29.74S
MAPLE LAKE     CLOUDY    37  34  89 SE3       29.74S
HUTCHINSON     CLOUDY    36  34  94 E7        29.72S
$$
MNZ037-044-045-052-053-200100-
   East Central Minnesota

CITY           SKY/WX    TMP DP  RH WIND       PRES   REMARKS
PRINCETON      CLOUDY    39  34  81 SE6       29.74S
MORA           CLOUDY    36  32  87 SE3       29.76R
CAMBRIDGE      CLOUDY    37  30  75 SE3       29.73S
RUSH CITY      CLOUDY    36  32  87 S3        29.76S
MOOSE LAKE     CLEAR     39  32  75 S3        29.72S
HINCKLEY       MOCLDY    37  34  87 S3        29.75S
CLOQUET        CLEAR     43  34  70 S6        29.73S
MCGREGOR       CLEAR     39  34  81 SE9       29.72S
$$
MNZ071>073-080-081-089-090-097-098-200100-
   Southwest Minnesota

CITY           SKY/WX    TMP DP  RH WIND       PRES   REMARKS
MONTEVIDEO     FOG       37  37 100 S7        29.70R VSB 1/2
GRANITE FALLS  FOG       37  36  96 SE12      29.70S VSB 1/4
CANBY          CLOUDY    38  37  95 SE3       29.66S
MARSHALL       FOG       37  37 100 S8        29.67S VSB 3/4
REDWOOD FALLS  CLOUDY    35  35 100 CALM      29.70R FOG
OLIVIA         FOG       34  32  93 SE7       29.69F VSB 1   WCI  28
PIPESTONE      FOG       36  36 100 S7        29.64S VSB 1/2
WINDOM         FOG       36  36 100 CALM      29.68F VSB 3/4
WORTHINGTON    FOG       35  35 100 S3        29.68S VSB 1/4
JACKSON        CLOUDY    34  34 100 SE5       29.69S FOG     WCI  30
TRACY          FOG       37  37  99 S12       29.67S VSB 3/4
SLAYTON        FOG       35  35 100 SE8       29.67S VSB 1/4 WCI  28
$$
MNZ065>067-074>077-082>085-091>093-200100-
   South Central Minnesota

CITY           SKY/WX    TMP DP  RH WIND       PRES   REMARKS
MANKATO        CLOUDY    35  32  88 SE9       29.73S WCI  28
NEW ULM        CLOUDY    36  34  93 SE3       29.71S
ST JAMES       CLOUDY    36  36 100 E9        29.71S
FAIRMONT       CLOUDY    35  33  92 SE10      29.71S WCI  27
GLENCOE        MOCLDY    35  35 100 SE6       29.72S WCI  29
FARIBAULT        N/A     37  32  81 SE5       29.74F
OWATONNA       CLOUDY    37  32  81 SE10      29.73F
WASECA         CLOUDY    36  32  87 SE10      29.74S
ALBERT LEA     CLOUDY    36  34  93 SE7       29.71F
$$
MNZ078>079-086>088-094>096-200100-
   Southeast Minnesota

CITY           SKY/WX    TMP DP  RH WIND       PRES   REMARKS
ROCHESTER      CLOUDY    34  32  92 SE14      29.74F WCI  25
6HR MIN TEMP:  31; 6HR MAX TEMP:  35;

RED WING       CLOUDY    37  32  81 E5        29.77S
STANTON        CLOUDY    39  32  77 CALM      29.74S
DODGE CENTER   MOCLDY    36  32  87 SE9       29.73F
WINONA         RAIN      36  34  93 CALM      29.80S
AUSTIN         CLOUDY    36  32  87 SE8       29.73S
PRESTON        MOCLDY    34  32  92 SE9       29.76F FOG     WCI  27
$$
ABBREVIATIONS USED IN REMARKS
   TC - TEMPERATURES IN CELSIUS
  WCI - WIND CHILL INDEX
   HX - HEAT INDEX
  VSB - VISIBILITY
$$



USA.gov is the U.S. government's official web portal to all federal, state and local government web resources and services.